When you browse on this site, cookies collect data to enhance your experience and personalize the content and advertising you see.
Visit our Privacy Policy to learn more. By continuing to use the site, you agree to this use of cookies and data.
  • In Austria
  • List of Countries
  • For 7 days
  • Water Temperature
  • Weather Map
  • News
  • Weather Widgets
  • user-avatar
    Login

    Hourly Weather Zenica

    Today, 20 October, Sunday

    Time Temperature Precipitation Wind Pressure Humidity
    00:00 +9°C° 0 mm 2 mps 678 mmHg 84%
    01:00 +9°C° 0 mm 1 mps 679 mmHg 87%
    02:00 +9°C° 0 mm 1 mps 679 mmHg 87%
    03:00 +8°C° 0 mm 2 mps 678 mmHg 87%
    04:00 +8°C° 0 mm 2 mps 678 mmHg 87%
    05:00 +8°C° 0 mm 2 mps 678 mmHg 85%
    06:00 +8°C° 0 mm 2 mps 679 mmHg 83%
    07:00 +9°C° 0 mm 2 mps 679 mmHg 80%
    08:00 +12°C° 0 mm 2 mps 680 mmHg 70%
    09:00 +15°C° 0 mm 2 mps 681 mmHg 61%
    10:00 +18°C° 0 mm 2 mps 681 mmHg 52%
    11:00 +18°C° 0 mm 2 mps 681 mmHg 49%
    12:00 +19°C° 0 mm 2 mps 681 mmHg 46%
    13:00 +20°C° 0 mm 2 mps 682 mmHg 44%
    14:00 +20°C° 0 mm 1 mps 681 mmHg 51%
    15:00 +19°C° 0 mm 1 mps 681 mmHg 57%
    16:00 +18°C° 0 mm 1 mps 680 mmHg 64%
    17:00 +16°C° 0 mm 1 mps 680 mmHg 70%
    18:00 +14°C° 0 mm 1 mps 680 mmHg 77%
    19:00 +12°C° 0 mm 2 mps 680 mmHg 83%
    20:00 +12°C° 0 mm 2 mps 680 mmHg 84%
    21:00 +10°C° 0 mm 2 mps 680 mmHg 84%
    22:00 +10°C° 0 mm 2 mps 680 mmHg 85%
    23:00 +10°C° 0 mm 2 mps 680 mmHg 83%

    Tomorrow, 21 October, Monday

    Time Temperature Precipitation Wind Pressure Humidity
    00:00 +9°C° 0 mm 2 mps 680 mmHg 81%
    01:00 +9°C° 0 mm 2 mps 680 mmHg 79%
    02:00 +9°C° 0 mm 2 mps 680 mmHg 77%
    03:00 +9°C° 0 mm 2 mps 680 mmHg 75%
    04:00 +9°C° 0 mm 2 mps 680 mmHg 72%
    05:00 +10°C° 0 mm 1 mps 680 mmHg 70%
    06:00 +11°C° 0 mm 1 mps 681 mmHg 67%
    07:00 +11°C° 0 mm 1 mps 681 mmHg 65%
    08:00 +14°C° 0 mm 1 mps 682 mmHg 57%
    09:00 +18°C° 0 mm 1 mps 682 mmHg 49%
    10:00 +21°C° 0 mm 1 mps 683 mmHg 41%
    11:00 +22°C° 0 mm 1 mps 683 mmHg 40%
    12:00 +21°C° 0 mm 0 mps 684 mmHg 38%
    13:00 +22°C° 0 mm 0 mps 684 mmHg 36%
    14:00 +21°C° 0 mm 0 mps 683 mmHg 43%
    15:00 +20°C° 0 mm 0 mps 683 mmHg 49%
    16:00 +18°C° 0 mm 0 mps 682 mmHg 55%
    17:00 +17°C° 0 mm 0 mps 682 mmHg 58%
    18:00 +15°C° 0 mm 0 mps 682 mmHg 61%
    19:00 +13°C° 0 mm 0 mps 682 mmHg 64%
    20:00 +13°C° 0 mm 0 mps 682 mmHg 64%
    21:00 +12°C° 0 mm 0 mps 682 mmHg 64%
    22:00 +12°C° 0 mm 0 mps 682 mmHg 64%
    23:00 +13°C° 0 mm 1 mps 682 mmHg 63%

    Day after tomorrow, 22 October, Tuesday

    Time Temperature Precipitation Wind Pressure Humidity
    00:00 +13°C° 0 mm 1 mps 682 mmHg 63%
    01:00 +12°C° 0 mm 1 mps 681 mmHg 63%
    02:00 +12°C° 0 mm 1 mps 681 mmHg 62%
    03:00 +11°C° 0 mm 0 mps 681 mmHg 62%
    04:00 +11°C° 0 mm 0 mps 681 mmHg 62%
    05:00 +11°C° 0 mm 0 mps 681 mmHg 61%
    06:00 +11°C° 0 mm 0 mps 681 mmHg 61%
    07:00 +11°C° 0 mm 0 mps 681 mmHg 60%
    08:00 +15°C° 0 mm 1 mps 682 mmHg 54%
    09:00 +19°C° 0 mm 1 mps 683 mmHg 48%
    10:00 +22°C° 0 mm 1 mps 683 mmHg 42%
    11:00 +22°C° 0 mm 1 mps 683 mmHg 40%
    12:00 +23°C° 0 mm 1 mps 683 mmHg 38%
    13:00 +24°C° 0 mm 1 mps 683 mmHg 35%
    14:00 +23°C° 0 mm 1 mps 683 mmHg 41%
    15:00 +21°C° 0 mm 1 mps 682 mmHg 47%
    16:00 +20°C° 0 mm 1 mps 682 mmHg 53%
    17:00 +18°C° 0 mm 1 mps 682 mmHg 57%
    18:00 +14°C° 0 mm 0 mps 681 mmHg 60%
    19:00 +12°C° 0 mm 0 mps 681 mmHg 64%
    20:00 +12°C° 0 mm 0 mps 681 mmHg 65%
    21:00 +12°C° 0 mm 0 mps 681 mmHg 65%
    22:00 +11°C° 0 mm 0 mps 681 mmHg 65%
    23:00 +11°C° 0 mm 0 mps 681 mmHg 65%

    23 October, Wednesday

    Time Temperature Precipitation Wind Pressure Humidity
    00:00 +11°C° 0 mm 0 mps 681 mmHg 64%
    01:00 +12°C° 0 mm 1 mps 680 mmHg 63%
    02:00 +11°C° 0 mm 0 mps 680 mmHg 62%
    03:00 +10°C° 0 mm 0 mps 680 mmHg 61%
    04:00 +10°C° 0 mm 0 mps 680 mmHg 59%
    05:00 +12°C° 0 mm 1 mps 680 mmHg 59%
    06:00 +12°C° 0 mm 1 mps 680 mmHg 58%
    07:00 +12°C° 0 mm 1 mps 680 mmHg 58%
    08:00 +15°C° 0 mm 1 mps 681 mmHg 52%
    09:00 +19°C° 0 mm 1 mps 681 mmHg 46%
    10:00 +20°C° 0 mm 0 mps 682 mmHg 40%
    11:00 +21°C° 0 mm 0 mps 682 mmHg 39%
    12:00 +23°C° 0 mm 1 mps 682 mmHg 37%
    13:00 +24°C° 0 mm 1 mps 682 mmHg 36%
    14:00 +21°C° 0 mm 0 mps 681 mmHg 42%
    15:00 +19°C° 0 mm 0 mps 681 mmHg 48%
    16:00 +18°C° 0 mm 0 mps 680 mmHg 55%
    17:00 +18°C° 0 mm 1 mps 680 mmHg 58%
    18:00 +16°C° 0 mm 1 mps 679 mmHg 61%
    19:00 +14°C° 0 mm 1 mps 679 mmHg 64%
    20:00 +14°C° 0 mm 1 mps 679 mmHg 64%
    21:00 +13°C° 0 mm 1 mps 679 mmHg 64%
    22:00 +13°C° 0 mm 1 mps 679 mmHg 64%
    23:00 +12°C° 0 mm 1 mps 679 mmHg 63%

    24 October, Thursday

    Time Temperature Precipitation Wind Pressure Humidity
    00:00 +12°C° 0 mm 1 mps 678 mmHg 62%
    01:00 +12°C° 0 mm 1 mps 678 mmHg 61%
    02:00 +12°C° 0 mm 1 mps 678 mmHg 60%
    03:00 +11°C° 0 mm 1 mps 678 mmHg 58%
    04:00 +11°C° 0 mm 1 mps 677 mmHg 57%
    05:00 +11°C° 0 mm 1 mps 677 mmHg 56%
    06:00 +11°C° 0 mm 1 mps 677 mmHg 55%
    07:00 +11°C° 0 mm 1 mps 677 mmHg 55%
    08:00 +14°C° 0 mm 1 mps 678 mmHg 49%
    09:00 +18°C° 0 mm 1 mps 678 mmHg 43%
    10:00 +21°C° 0 mm 1 mps 679 mmHg 38%
    11:00 +22°C° 0 mm 1 mps 679 mmHg 36%
    12:00 +22°C° 0 mm 1 mps 679 mmHg 33%
    13:00 +23°C° 0 mm 1 mps 679 mmHg 31%
    14:00 +22°C° 0 mm 1 mps 678 mmHg 37%
    15:00 +20°C° 0 mm 1 mps 678 mmHg 43%
    16:00 +19°C° 0 mm 1 mps 677 mmHg 49%
    17:00 +16°C° 0 mm 1 mps 677 mmHg 52%
    18:00 +14°C° 0 mm 1 mps 676 mmHg 55%
    19:00 +12°C° 0 mm 1 mps 676 mmHg 58%
    20:00 +12°C° 0 mm 1 mps 676 mmHg 58%
    21:00 +12°C° 0 mm 1 mps 676 mmHg 58%
    22:00 +11°C° 0 mm 1 mps 676 mmHg 58%
    23:00 +11°C° 0 mm 1 mps 676 mmHg 57%

    25 October, Friday

    Time Temperature Precipitation Wind Pressure Humidity
    00:00 +11°C° 0 mm 1 mps 676 mmHg 56%
    01:00 +10°C° 0 mm 1 mps 676 mmHg 55%
    02:00 +10°C° 0 mm 1 mps 676 mmHg 54%
    03:00 +10°C° 0 mm 1 mps 676 mmHg 54%
    04:00 +10°C° 0 mm 1 mps 676 mmHg 54%
    05:00 +9°C° 0 mm 0 mps 676 mmHg 54%
    06:00 +9°C° 0 mm 0 mps 677 mmHg 54%
    07:00 +9°C° 0 mm 0 mps 677 mmHg 54%
    08:00 +12°C° 0 mm 0 mps 678 mmHg 50%
    09:00 +15°C° 0 mm 0 mps 679 mmHg 45%
    10:00 +17°C° 0 mm 0 mps 680 mmHg 40%
    11:00 +20°C° 0 mm 1 mps 680 mmHg 39%
    12:00 +21°C° 0 mm 1 mps 680 mmHg 38%
    13:00 +21°C° 0 mm 1 mps 680 mmHg 37%
    14:00 +20°C° 0 mm 1 mps 679 mmHg 44%
    15:00 +19°C° 0 mm 1 mps 679 mmHg 51%
    16:00 +16°C° 0 mm 1 mps 678 mmHg 58%
    17:00 +15°C° 0 mm 1 mps 678 mmHg 64%
    18:00 +13°C° 0 mm 1 mps 678 mmHg 70%
    19:00 +11°C° 0 mm 1 mps 678 mmHg 76%
    20:00 +10°C° 0 mm 1 mps 678 mmHg 78%
    21:00 +10°C° 0 mm 1 mps 678 mmHg 80%
    22:00 +9°C° 0 mm 0 mps 678 mmHg 82%
    23:00 +8°C° 0 mm 0 mps 678 mmHg 83%
    Show more